Simultaneous Nadir Overpasses (SNOs) Predictions

Prediction of SNOs between GOES-15 and FY3D Satellite Orbit:

Table of predicted SNOs for the next 14.0 days since TLE Epoch: 10/26/2024
Index Date Time (GOES-15) GOES-15 Lat,Lon FY3D Lat,Lon Distance(km) Time Diff (sec)
1 10/26/2024 22:47:52 0.06, 61.33 0.56, 59.14 249.88 80
2 10/27/2024 22:26:32 0.08, 61.34 -0.44, 63.67 265.36 80
3 10/29/2024 10:48:34 -0.04, 61.42 -0.76, 58.38 347.12 80
4 10/30/2024 10:32:35 -0.06, 61.43 0.31, 62.90 168.98 80
5 10/31/2024 22:54:29 0.03, 61.37 0.89, 57.65 425.48 80
6 11/01/2024 22:33:08 0.05, 61.39 -0.13, 62.18 89.41 80
7 11/04/2024 10:36:29 -0.04, 61.51 -0.08, 61.43 10.38 80
8 11/06/2024 22:42:23 0.02, 61.49 0.22, 60.70 90.36 80
9 11/07/2024 22:21:03 0.04, 61.52 -0.81, 65.23 423.60 80
